SCOUT B DEB, 28793

Orbit data source: Space-Track

SCOUT B DEB, 28793 is space debris in LEO originally from a launch on Tue, 10 Aug 1965 UTC launched from the Wallops Island (WLPIS). Debris objects in space refer to the collection of defunct objects orbiting the Earth. Examples of debris include non-operational satellites, rocket bodies, and fragments generated from explosions, collisions, or faulty payload assembly.

Loading next visibility...
Identifier
28793, 1965-063C
Orbit
LEO
Last TLE update
2 months ago
Origin
Manufacturer
Unknown
Mission
Spacecraft
Bus & Motor
Unknown
Mass
Unknown
Launch date (UTC)
1965-08-10 (60 years ago)
Launch vehicle
Unknown
Launch site
Wallops Island (WLPIS)
Object type
Payload
Rocket body
Debris
Shape & HBR
Unknown
Radar Cross Section
Small (<0.1 m²)

Expand to show TLE details & history

TLE from 2 months ago
0 SCOUT B DEB
1 28793U 65063C   25080.97450667  .00002403  00000-0  10269-1 0  9996
2 28793  69.1983 304.6276 0776103 347.5532  10.7224 12.12216309421727
Epoch: 2025-03-21T23:23Z
Definitive object data (Epoch: 2025-03-21T23:23:17.376Z)
Latitude
0.00004°
Longitude
134.07898°
Altitude
1,020.115 km
Speed
7.616 km/s
True Right ascension
20h 18m 30s
True Declination
0° 00' 00"
Sunlit
Object was in daylight at TLE epoch
Visualization TLE readout
Latitude
-22.45822°
Longitude
-115.68313°
Altitude
1,721.635 km
Speed
6.977 km/s
Apparent Right ascension
06h 20m 15s
Apparent Declination
-55° 27' 23"
Sunlit
Object is in daylight
Visualization observer readout
Local Sidereal Time
00:57:44
Azimuth
141.005° SSE
Elevation
-27.24°
Doppler factor
1
Orbital elements
Apogee altitude
2,246.023 km
Perigee altitude
1,003.786 km
Semi-major axis
8,003.042 km
Eccentricity
0.0776103
Inclination
69.1983°
RAAN
304.6276°
Arg. of periapsis
347.5532°
True anomaly
12.55023°
Mean anomaly
10.7224°
Eccentric anomaly
11.6179°
Mean motion
3.03152 °/min
BSTAR
0.010269
Orbital period
118.75 mins
Loading maneuver chart data...
Loading SW <> Apogee altitude chart data...
Loading historical data...
Loading historical data...
Loading historical data...
Loading historical data...
Loading historical data...
Loading historical data...
Loading historical data...

SCOUT B DEB Visibility forecast

Observer location: undefined°, undefined°

Span
Click to sort rows by Start time (UTC) header in descending order
Start Az.
Max El. time (UTC)
Max El. Az.
Max El.
End time (UTC)
End Az.
24 mins2025-05-09 18:10:12.406Z328.651° NNW2025-05-09 18:22:12.406Z260.414° W41.28°2025-05-09 18:34:12.406Z177.836° S
7 mins2025-05-09 20:19:12.406Z288.385° WNW2025-05-09 20:22:12.406Z273.769° WNW13.01°2025-05-09 20:26:12.406Z254.132° W
5 mins2025-05-10 05:37:12.406Z96.368° ESE2025-05-10 05:39:12.406Z83.069° E12.126°2025-05-10 05:42:12.406Z65.181° ENE
17 mins2025-05-10 07:31:12.406Z189.865° SSW2025-05-10 07:38:12.406Z109.362° ESE43.498°2025-05-10 07:48:12.406Z29.471° NE
16 mins2025-05-10 09:35:12.406Z263.037° W2025-05-10 09:41:12.406Z312.904° NW29.085°2025-05-10 09:51:12.406Z16.648° NNE
9 mins2025-05-10 11:45:12.406Z327.413° NNW2025-05-10 11:49:12.406Z350.003° N14.369°2025-05-10 11:54:12.406Z15.579° NNE
14 mins2025-05-10 13:52:12.406Z351.033° N2025-05-10 13:58:12.406Z22.953° NE17.36°2025-05-10 14:06:12.406Z62.127° ENE
22 mins2025-05-10 15:54:12.406Z343.376° N2025-05-10 16:05:12.406Z53.981° ENE35.537°2025-05-10 16:16:12.406Z119.963° SE
|